Location: Kunchanapalle
(16.4623°N, 80.6176°E)
Time: 12:37:50
(UTC+00:00)

Resurs 01 Rocket - Pass Details

Date: 13 August 2020
Orbit: 634 x 644 km, 98.0° (Epoch: 25 September)

Event Time Altitude Azimuth Distance (km) Brightness Sun altitude
Exits shadow 14:55:03 11° 24° (NNE) 1,949 4.1 -26.0°
Drops below altitude 10° 14:55:12 10° 23° (NNE) 1,998 4.2 -26.0°
Sets 14:57:50 0° 8° (N) 2,933 5.2 -26.6°
